Location: Unspecified
(0.0000°N, 0.0000°E)
Time: 06:10:04
(UTC+00:00)

TIROS 6 DEB - Pass Details

Date: 20 August 2024
Orbit: 609 x 625 km, 58.3° (Epoch: 04 September)

Event Time Altitude Azimuth Distance (km) Brightness Sun altitude
Exits shadow 03:49:13 23° 39° (NE) 1,332 ? -32.7°
Drops below altitude 10° 03:50:55 10° 35° (NE) 1,973 ? -32.3°
Sets 03:53:11 0° 33° (NNE) 2,872 ? -31.7°
